Regional Weather Roundup
Issued by NWS

Home | Current Version | Previous Version | Graphics & Text | Print | Product List | Glossary On
Versions: 1 2 3 4 5 6 7 8 9 10 11 12 13 14 15 16 17 18 19 20 21 22 23 24 25 26 27 28 29 30 31 32 33 34 35 36 37 38 39 40 41 42 43 44 45 46 47 48 49 50
000
ASUS43 KDMX 300103
RWRIA

WEATHER ROUNDUP FOR IOWA
NATIONAL WEATHER SERVICE DES MOINES IA
800 PM CDT THU SEP 29 2016

NOTE: "FAIR" INDICATES FEW OR NO CLOUDS BELOW 12,000 FEET WITH NO
SIGNIFICANT WEATHER AND/OR OBSTRUCTIONS TO VISIBILITY.

* - THESE STATIONS ARE NOT NWS STATIONS...THUS NOT UNDER NWS
QUALITY CONTROL.  THEY ALSO DO NOT REPORT WEATHER SUCH
AS PRECIPITATION OR FOG.

IAZ001>003-012>014-020>022-031>034-043>046-300200-
   NORTHWEST IOWA

CITY           SKY/WX    TMP DP  RH WIND       PRES   REMARKS
CARROLL *      CLEAR     55  46  71 N6        30.33S
CHEROKEE *     CLEAR     58  48  70 NE5       30.35S
DENISON *      CLEAR     57  46  67 E6        30.32S
LE MARS *      CLEAR     63  48  59 E7        30.34F
SHELDON *      CLEAR     55  48  76 NE6       30.34F
SIOUX CITY     CLEAR     64  48  56 E5        30.33S
SPENCER        CLEAR     56  46  69 NE5       30.36F
STORM LAKE *   CLEAR     57  48  72 NE7       30.35S
$$

IAZ055>058-069>071-079>083-090>094-300200-
   SOUTHWEST IOWA

CITY           SKY/WX    TMP DP  RH WIND       PRES   REMARKS
ATLANTIC *     CLEAR     57  46  67 N5        30.33R
AUDUBON *      CLEAR     54  46  76 CALM      30.34S
CLARINDA *       N/A     57  50  77 MISG      30.32S HAZE
COUNCIL BLFS * CLEAR     61  46  59 NE6       30.32S
CRESTON *      CLEAR     59  48  67 N8        30.32S
HARLAN  *      CLEAR     57  46  67 NE3       30.36S
LAMONI         CLEAR     61  50  67 N8        30.29S
RED OAK *      CLEAR     57  48  72 NE5       30.32S
SHENANDOAH *   CLEAR     57  50  77 CALM      30.31S
$$

IAZ047>049-059>061-072>074-084-300200-
   CENTRAL IOWA

CITY           SKY/WX    TMP DP  RH WIND       PRES   REMARKS
AMES           CLEAR     59  49  69 N7        30.31R
ANKENY *         N/A    N/A N/A N/A MISG        N/A
BOONE *        CLEAR     61  46  59 N8        30.31R HAZE
CHARITON *       N/A     59  50  72 N7        30.28R
DES MOINES     CLEAR     67  47  48 N8        30.29S
GRINNELL*      CLEAR     64  45  51 N7        30.30R
KNOXVILLE *    CLEAR     64  46  52 N6        30.27R
MARSHALLTOWN   CLEAR     60  47  61 NE7       30.30R
NEWTON *       CLEAR     61  46  59 N7        30.29R
PELLA *        CLEAR     61  46  59 CALM      30.29R
PERRY *          N/A     61  49  64 NW6       30.32R
$$

IAZ004>006-015-016-023>025-035-036-300200-
   NORTH CENTRAL IOWA

CITY           SKY/WX    TMP DP  RH WIND       PRES   REMARKS
ALGONA *       CLEAR     55  48  76 N6        30.36S
CLARION *      CLEAR     59  48  67 N8        30.34S
ESTHERVILLE    CLEAR     54  47  77 NE7       30.36F
FORT DODGE *   CLEAR     59  46  63 N5        30.34S
MASON CITY     CLEAR     54  47  77 N8        30.36S
FOREST CITY *    N/A     55  46  71 N6        30.36R
WEBSTER CITY * CLEAR     57  48  72 N7        30.31S
IOWA FALLS *     N/A     62  47  58 N5        30.33S
$$

IAZ007>011-017>019-026>030-037>042-050>054-066-300200-
   NORTHEAST IOWA

CITY           SKY/WX    TMP DP  RH WIND       PRES   REMARKS
CEDAR RAPIDS   CLEAR     63  51  65 N8        30.28R
CHARLES CITY * CLEAR     61  48  63 NE7       30.35R
CLINTON *      CLOUDY    65  55  70 NE10      30.27S
DECORAH *      CLEAR     61  52  72 N7        30.33S
DUBUQUE        PTCLDY    63  49  60 NE13      30.30R
MONTICELLO *   CLEAR     63  48  59 NE5       30.29R
OELWEIN *      CLEAR     61  52  72 N9        30.32S
WATERLOO       CLEAR     58  48  69 N8        30.31R
$$

IAZ064-065-067-068-078-300200-
   EAST CENTRAL IOWA

CITY           SKY/WX    TMP DP  RH WIND       PRES   REMARKS
DAVENPORT      CLOUDY    66  53  63 NE12      30.26S
IOWA CITY      CLEAR     65  50  58 N7        30.28R
MT. PLEASANT * CLOUDY    69  51  51 N8        30.25R
MUSCATINE *    CLOUDY    68  50  52 NE13G20   30.25S
QUAD CITIES    CLOUDY    67  53  61 NE10      30.25R
$$

IAZ062-063-075>077-085>089-095>099-300200-
   SOUTHEAST IOWA

CITY           SKY/WX    TMP DP  RH WIND       PRES   REMARKS
BURLINGTON     CLOUDY    68  55  63 NE12      30.24R
FAIRFIELD *    CLEAR     61  45  55 N7        30.26R
FORT MADISON *   N/A     68  52  56 NE6       30.24R
KEOKUK *       CLOUDY    70  52  52 NE9       30.22R
OSKALOOSA *      N/A     59  45  58 N6        30.28R
OTTUMWA        CLEAR     63  44  50 N7        30.27R
WASHINGTON *     N/A    N/A N/A N/A MISG        N/A
$$

ABBREVIATIONS USED IN REMARKS
   TC - TEMPERATURES IN CELSIUS
  WCI - WIND CHILL INDEX
   HX - HEAT INDEX
  VSB - VISIBILITY
$$





USA.gov is the U.S. government's official web portal to all federal, state and local government web resources and services.